Location: Columbia
(38.9520°N, 92.3340°W)
Time: 16:42:59
(UTC-06:00)

SJ-11-01 - Visible Passes

Search period start: 04 March 2015 00:00
Search period end: 14 March 2015 01:00
Orbit: 685 x 700 km, 98.3° (Epoch: 04 March)

Date Brightness Start Highest point End Pass type
(mag) Time Alt. Az. Time Alt. Az. Time Alt. Az.
04 Mar 4.8 19:36:46 36° ENE 19:37:01 36° ENE 19:41:19 10° N visible
04 Mar 6.6 21:15:27 20° W 21:15:27 20° W 21:18:12 10° NW visible
05 Mar 4.2 20:16:47 82° NW 20:16:47 82° NW 20:21:18 10° NNW visible
06 Mar 5.4 19:18:08 23° E 19:18:58 24° ENE 19:22:45 10° NNE visible
06 Mar 5.9 20:56:48 32° W 20:56:48 32° W 21:00:35 10° NNW visible
07 Mar 4.2 19:58:09 59° E 19:58:27 60° ENE 20:03:06 10° N visible
07 Mar 7.2 21:36:48 12° W 21:36:48 12° W 21:38:24 10° WNW visible
08 Mar 5.9 19:59:30 14° E 20:00:57 16° ENE 20:03:55 10° NNE visible
08 Mar 5.0 21:38:10 51° W 21:38:10 51° W 21:42:44 10° NNW visible
09 Mar 4.7 20:39:30 35° E 20:40:22 39° ENE 20:44:44 10° N visible
09 Mar 6.6 22:18:11 20° W 22:18:11 20° W 22:21:27 10° NW visible
10 Mar 6.2 19:42:06 10° ENE 19:42:59 11° ENE 19:44:08 10° NE visible
10 Mar 4.2 21:19:32 73° SSW 21:19:57 81° W 21:24:41 10° NNW visible
11 Mar 5.3 20:20:53 22° E 20:22:18 26° ENE 20:26:13 10° NNE visible
11 Mar 5.9 21:59:33 30° W 21:59:45 30° W 22:03:53 10° NW visible
12 Mar 4.2 21:00:55 53° SE 21:01:47 65° ENE 21:06:29 10° N visible
12 Mar 7.2 22:39:34 12° W 22:39:54 12° W 22:41:22 10° WNW visible
13 Mar 5.8 20:02:15 13° E 20:04:16 17° ENE 20:07:25 10° NNE visible
13 Mar 5.1 21:40:55 45° WSW 21:41:30 47° W 21:46:03 10° NNW visible
